Regional Weather Roundup
Issued by NWS

Home | Current Version | Previous Version | Text Only | Print | Product List | Glossary Off
Versions: 1 2 3 4 5 6 7 8 9 10 11 12 13 14 15 16 17 18 19 20 21 22 23 24 25 26 27 28 29 30 31 32 33 34 35 36 37 38 39 40 41 42 43 44 45 46 47 48 49 50

000
ASUS43 KMKX 221621
RWRWI

WISCONSIN REGIONAL WEATHER ROUNDUP
NATIONAL WEATHER SERVICE MILWAUKEE/SULLIVAN WI
1100 AM CDT TUE MAY 22 2018

NOTE: "FAIR" INDICATES FEW OR NO CLOUDS BELOW 12,000 FEET WITH NO
SIGNIFICANT WEATHER AND/OR OBSTRUCTIONS TO VISIBILITY.

WIZ001-002-006>008-014>016-023>028-221700-
NORTHWEST WISCONSIN

CITY           SKY/WX    TMP DP  RH WIND       PRES   REMARKS
SUPERIOR ARPT  CLOUDY    70  53  54 W5        30.04R
ASHLAND        FAIR      70  47  43 CALM      30.04S
HAYWARD        CLOUDY    64  54  69 CALM      30.07R
SIREN          CLOUDY    66  55  65 S3        30.07R
CUMBERLAND     CLOUDY    61  54  77 S3        30.09R
RICE LAKE      CLOUDY    61  55  78 S5        30.11R
CHETEK         CLOUDY    60  55  84 W3        30.10R
LADYSMITH      PTSUNNY   64  55  74 CALM      30.09S
EAU CLAIRE     CLOUDY    61  55  81 W6        30.09R
MENOMONIE      CLOUDY    61  56  82 CALM      30.09S
NEW RICHMOND   CLOUDY    62  54  74 S6        30.09S
OSCEOLA        CLOUDY    64  56  75 S8        30.11S
$$

WIZ003>005-009-010-017-018-221700-
NORTH CENTRAL WISCONSIN

CITY           SKY/WX    TMP DP  RH WIND       PRES   REMARKS
MANITOWISH WTR PTSUNNY   68  51  53 CALM      30.05S
ARBOR VITAE    FAIR      72  52  50 W6        30.05S
WOODRUFF       FAIR      72  52  50 W6        30.05S
RHINELANDER    FAIR      70  54  56 VRB3      30.05S
EAGLE RIVER    FAIR      69  41  35 E5        30.04S
LAND O LAKES   FAIR      70  38  31 NE5       30.06R
PHILLIPS       CLOUDY    67  55  65 CALM      30.06R
TOMAHAWK       FAIR      67  53  61 CALM      30.06S
MEDFORD        PTSUNNY   62  56  82 NW3       30.07R
MERRILL        CLOUDY    66  57  72 CALM      30.07R
$$

WIZ029-030-035-036-043>047-221700-
CENTRAL WISCONSIN

CITY           SKY/WX    TMP DP  RH WIND       PRES   REMARKS
WAUSAU         FAIR      65  55  70 MISG      30.04R
MOSINEE        PTSUNNY   64  55  72 CALM      30.07R
MARSHFIELD     CLOUDY    61  56  83 CALM      30.07R
STEVENS POINT  PTSUNNY   59  55  87 CALM      30.08R
WAUPACA        CLOUDY    64  55  72 CALM      30.08R
WAUTOMA        CLOUDY    59  54  83 SW5       30.08S
WISC RAPIDS    CLOUDY    59  54  83 VRB5      30.09R
CAMP DOUGLAS   CLOUDY    59  55  88 CALM      30.08S
$$

WIZ011>013-019>022-031-037>040-048>050-221700-
NORTHEAST WISCONSIN

CITY           SKY/WX    TMP DP  RH WIND       PRES   REMARKS
ANTIGO         FAIR      64  57  78 CALM      30.06R
SHAWANO        FAIR      67  56  68 NE3       30.05S
OCONTO         CLOUDY    58  51  77 CALM      30.06S
STURGEON BAY   CLOUDY    58  52  80 N3        30.06R
GREEN BAY      PTSUNNY   61  53  75 CALM      30.07R
MANITOWOC      CLOUDY    56  51  84 VRB5      30.07S
APPLETON       CLOUDY    57  50  77 CALM      30.06R
CLINTONVILLE   PTSUNNY   65  54  67 CALM      30.06R
OSHKOSH        CLOUDY    58  53  84 CALM      30.07R
$$

WIZ032>034-041-042-053>061-221700-
SOUTHWEST WISCONSIN

CITY           SKY/WX    TMP DP  RH WIND       PRES   REMARKS
LA CROSSE      CLOUDY    63  56  78 NW5       30.08S
SPARTA         CLOUDY    56  53  90 CALM      30.10R
VIROQUA        CLOUDY    60  59  96 NW5       30.09R
BOSCOBEL       CLOUDY    63  58  83 CALM      30.08R
PRAIRIE DU CHI CLOUDY    65  56  73 W5        30.07S
PLATTEVILLE    CLOUDY    63  62  96 NW6       30.08R
$$

WIZ056-057-062-063-064-067-068-221700-
SOUTH CENTRAL WISCONSIN

CITY           SKY/WX    TMP DP  RH WIND       PRES   REMARKS
REEDSBURG      CLOUDY    58  57  99 CALM      30.09R
BARABOO/DELLS  CLOUDY    56  53  89 NW5       30.08S
LONE ROCK      CLOUDY    61  58  90 VRB5      30.08R
MINERAL POINT  CLOUDY    61  61 100 NW3       30.08R
MADISON        CLOUDY    59  55  87 NE7       30.07R
MIDDLETON      CLOUDY    60  55  85 CALM      30.08S
WATERTOWN      CLOUDY    57  56  95 CALM      30.07S
MONROE         CLOUDY    63  57  82 CALM      30.07S
JANESVILLE     CLOUDY    61  61 100 NW5       30.07R
$$

WIZ051-052-058>065-066-070>072-221700-
SOUTHEAST WISCONSIN

CITY           SKY/WX    TMP DP  RH WIND       PRES   REMARKS
MILWAUKEE      CLOUDY    54  51  90 NE5       30.07R
WAUKESHA       CLOUDY    54  52  94 CALM      30.08R
MILWAUKEE/TIMM CLOUDY    54  52  94 NW3       30.07R
RACINE         CLOUDY    53  51  93 N8        30.09R
BURLINGTON     CLOUDY    56  54  91 NW5       30.07R
KENOSHA        CLOUDY    56  52  86 CALM      30.07R
FOND DU LAC    CLOUDY    57  52  83 CALM      30.07R
SHEBOYGAN      CLOUDY    56  52  86 NE3       30.06S
WEST BEND      CLOUDY    55  54  94 NW3       30.07S
JUNEAU         CLOUDY    56  53  91 CALM      30.08R
$$

LSZ147-162-221700-
LAKE SUPERIOR

STATION/POSITION TIME  TEMP    WIND        PRES    WAVE
                       AIR SEA DIR/SP/G            HT/PER
                 (UTC) (F)     (DEG/KT/KT) (MB)    (FT/S)
W MID LAKE BUOY  1550   40 36  230/  8/  8 1017.0R   0
DEVILS ISLAND    1600   54     230/ 11/ 15 1017.3R
SAXON HARBOR     1540   66      60/  3/  4 1016.9S
$$

LMZ867-665-643>646-221700-
LAKE MICHIGAN

STATION/POSITION TIME  TEMP    WIND        PRES    WAVE
                       AIR SEA DIR/SP/G            HT/PER
                 (UTC) (F)     (DEG/KT/KT) (MB)    (FT/S)
N MID LAKE BUOY  1600   45 38   CALM  /  2 1017.4
NORTHPORT PIER   1540   49     330/  2/  2 1017.6R
KEWAUNEE LAKESHO 1554   52     170/  4/  5 1017.4R
SHEBOYGAN LAKESH 1600   48      30/  7/  7 1018.3R
PORT WASHINGTON  1540   49      70/  4/  5 1019.3R
ATWATER BUOY     1537   47 47   10/  6/  8 1018.5R
MILWAUKEE LAKESH 1600   48      40/  9/ 10   N/A
KENOSHA   LAKESH 1600   49                 1018.3
$$

TC  - TEMPERATURE IN CELSIUS
VSB - VISIBILITY IN STATUTE MILES
WCI - WIND CHILL INDEX
HX  - HEAT INDEX




USA.gov is the U.S. government's official web portal to all federal, state and local government web resources and services.